[[{"header":{"parameterUnit":"m.s-1","parameterCategory":1,"la1":30.2991,"la2":30.254,"lo1":-89.0895,"lo2":-89.0444,"dy":0.0017,"dx":0.0017,"nx":28,"ny":28,"refTime":"2024-10-12T21:00:00:Z","depth":0,"parameterNumber":2,"parameterNumberName":"U-component_of_WINDS"},"data":[0,0,0,0,0,0,0,0,0,0,0,0,0,0,0,0,0,0,0,0,0,0,0,0,0,0,0,0,0,0,0,0,0,0,0,0,0,0,0,0,0,0,0,0,0,0,0,0,0,0,0,0,0,0,0,0,0,0,4.875,4.8752,0,4.8922,4.8924,4.8926,4.8872,4.8868,4.8864,4.8861,4.9042,4.905,4.9059,0,0,0,0,0,0,0,0,0,0,0,0,0,4.8379,4.8386,4.875,4.8752,4.8754,4.8922,4.8924,4.8927,4.8872,4.8868,4.8863,4.8859,4.904,4.9049,4.9059,0,0,0,0,0,0,0,0,0,0,0,0,0,4.8544,4.8388,4.875,4.8747,4.8749,4.8922,4.8924,4.8927,4.8873,4.8868,4.8862,4.8857,4.9036,4.9048,4.9061,4.9248,0,0,4.9099,4.9104,0,0,0,0,0,0,0,0,4.8535,4.8558,4.8746,4.8748,4.875,4.887,4.886,4.9035,4.8875,4.8826,4.8861,4.8854,4.899,4.9006,4.905,4.9256,4.9264,4.91,4.9107,4.9112,4.9116,0,0,0,0,0,0,0,4.8524,4.855,4.8818,4.8748,4.8751,4.8739,4.8756,4.8893,4.8937,4.883,4.8826,4.8847,4.899,4.9038,4.9054,4.9267,4.9099,4.911,4.9118,4.9123,4.9634,4.964,0,0,0,0,0,0,4.851,4.8541,4.8813,4.8823,4.8626,4.875,4.877,4.8837,4.8935,4.8945,4.8852,4.8844,4.902,4.904,4.906,4.9285,4.9112,4.9124,4.9131,4.9628,4.9636,4.9642,0,0,0,0,0,0,4.8502,4.8535,4.8806,4.8681,4.8715,4.8762,4.8838,4.8843,4.8891,4.8952,4.896,4.8893,4.9016,4.9043,4.9201,4.929,4.913,4.9141,4.9621,4.963,4.9639,4.9736,0,0,0,0,0,0,4.8492,4.8532,4.8603,4.8683,4.8722,4.8943,4.8844,4.8851,4.8912,4.8904,4.8992,4.9002,4.9014,4.9183,4.9213,4.9305,4.9151,4.9613,4.9625,4.9636,4.9725,4.9748,4.9767,0,0,0,0,0,4.8479,4.8625,4.8607,4.864,4.8811,4.8948,4.897,4.898,4.892,4.8992,4.903,4.8999,4.9276,4.9199,4.9233,4.933,4.9607,4.9622,4.9635,4.9716,4.9743,4.9766,0,0,0,0,0,0,4.8556,4.8636,4.8616,4.8793,4.8864,4.8938,4.9029,4.9009,4.91,4.9088,4.9097,4.9118,4.928,4.9321,4.9234,4.9516,4.9433,4.9454,4.9483,4.9509,4.953,4.9516,4.9161,0,0,0,0,0,4.8593,4.8696,4.8761,4.891,4.8947,4.8982,4.9042,4.9043,4.9118,4.9149,4.9199,4.9274,4.9377,4.9446,4.9545,4.9731,4.9749,4.9814,4.9835,4.9852,4.987,4.9971,5.0,4.9688,4.9687,4.9687,0,0,4.8672,4.8728,4.8793,4.8927,4.8982,4.909,4.9008,4.9126,4.9206,4.9167,4.9318,4.9358,4.9443,4.9615,4.9694,4.9655,4.996,4.9869,4.9882,4.9892,4.9988,5.0017,5.0044,4.9697,4.9695,4.9694,0,0,4.887,4.8923,4.9052,4.9109,4.9193,4.9215,4.9246,4.9324,4.9348,4.95,4.9473,4.9569,4.9748,4.9809,4.9864,5.0084,5.0058,5.0116,5.0224,5.0323,5.0347,5.0369,5.0447,5.0475,5.0134,5.0134,5.0134,0,4.8957,4.9117,4.9122,4.9242,4.9302,4.9269,4.9401,4.9456,4.9569,4.9612,4.9565,4.9788,4.9843,5.0029,5.0082,5.0128,5.0164,5.0106,5.0343,5.0365,5.0385,5.046,5.0489,5.0141,5.014,5.0139,5.0139,0,4.922,4.9331,4.9426,4.9533,4.9604,4.973,4.9755,4.9826,4.9821,4.9849,5.0004,5.0068,5.0179,5.0223,5.022,5.0409,5.0382,5.034,5.0256,5.0421,5.0491,5.052,5.015,5.0147,5.0146,5.0144,0,0,4.9472,4.9579,4.9614,4.9662,4.9752,4.9838,4.9963,5.0069,5.013,5.0209,5.0313,5.0464,5.0425,5.0487,5.0491,5.0577,5.0746,5.0524,5.0526,5.0562,5.0958,5.0988,5.1021,5.073,5.0735,5.074,5.095,0,4.9677,4.9893,4.99,5.0098,5.0201,5.0171,5.0279,5.0347,5.0376,5.0468,5.0501,5.0608,5.0548,5.0585,5.0669,5.0708,5.0826,5.0693,5.0828,5.0832,5.0806,5.1058,5.1091,5.1286,5.0978,5.0982,5.0986,0,4.9945,5.0029,5.0237,5.031,5.0354,5.0451,5.0548,5.0637,5.0713,5.0728,5.0796,5.0787,5.0915,5.0828,5.1004,5.0914,5.0969,5.0997,5.1005,5.1017,5.0919,5.1077,5.1349,5.1378,5.1029,5.1026,5.1022,0,5.0107,5.0273,5.0418,5.046,5.055,5.0619,5.066,5.073,5.0793,5.0879,5.092,5.1021,5.1076,5.1155,5.1173,5.1108,5.1349,5.1264,5.1366,5.1365,5.1418,5.1414,5.1702,5.1455,5.1455,5.1454,5.1453,0,5.0334,5.0462,5.0492,5.0581,5.0723,5.0732,5.0873,5.0909,5.0972,5.1068,5.105,5.1141,5.116,5.1256,5.1271,5.1414,5.144,5.1456,5.1459,5.1457,5.1455,5.1494,5.148,5.1462,5.146,5.1459,5.1457,0,5.054,5.0564,5.072,5.0792,5.0813,5.0915,5.0976,5.1063,5.1089,5.1211,5.124,5.1283,5.1394,5.142,5.1553,5.1564,5.1733,5.1723,5.1707,5.1706,5.1806,5.1796,5.2128,5.2172,5.1897,5.1899,5.1902,0,5.0683,5.078,5.0861,5.0923,5.0967,5.1068,5.1131,5.1144,5.1211,5.1304,5.1379,5.1488,5.1575,5.1755,5.1798,5.19,5.1891,5.2001,5.1907,5.1902,5.1892,5.1886,5.1895,5.2019,5.2022,5.2024,5.2026,0,5.0935,5.0942,5.1033,5.1129,5.1204,5.1281,5.1354,5.1407,5.1429,5.1506,5.1618,5.1685,5.182,5.1928,5.203,5.2074,5.2055,5.2055,5.2084,5.2084,5.207,5.2077,5.1755,5.2048,5.2045,5.2044,5.2043,5.2042,5.1113,5.1197,5.1267,5.1369,5.1425,5.1493,5.1577,5.1613,5.1706,5.1815,5.1817,5.1939,5.2012,5.2147,5.2196,5.2293,5.2259,5.2301,5.2312,5.2322,5.233,5.2055,5.2312,5.2311,5.2311,5.231,5.231,0,5.1363,5.1406,5.15,5.1601,5.1681,5.1654,5.1733,5.1802,5.191,5.1978,5.2064,5.2193,5.2297,5.2348,5.2452,5.252,5.2513,5.2546,5.2541,5.2551,5.2355,5.2319,5.255,5.255,5.255,5.255,5.2549,5.2549,5.1502,5.1643,5.1658,5.1827,5.1869,5.1987,5.2035,5.2098,5.2152,5.2296,5.2382,5.2414,5.2476,5.2583,5.2678,5.269,5.2729,5.2767,5.2775,5.259,5.2566,5.2542,5.2508,5.2775,5.2776,5.2963,5.2965,5.2966]},{"header":{"parameterUnit":"m.s-1","parameterCategory":1,"la1":30.2991,"la2":30.254,"lo1":-89.0895,"lo2":-89.0444,"dy":0.0017,"dx":0.0017,"nx":28,"ny":28,"refTime":"2024-10-12T21:00:00:Z","depth":0,"parameterNumber":3,"parameterNumberName":"V-component_of_WINDS"},"data":[0,0,0,0,0,0,0,0,0,0,0,0,0,0,0,0,0,0,0,0,0,0,0,0,0,0,0,0,0,0,0,0,0,0,0,0,0,0,0,0,0,0,0,0,0,0,0,0,0,0,0,0,0,0,0,0,0,0,-0.015,-0.015,0,-0.0149,-0.0149,-0.0149,-0.0151,-0.0152,-0.0152,-0.0152,-0.0151,-0.0151,-0.0151,0,0,0,0,0,0,0,0,0,0,0,0,0,-0.0157,-0.0157,-0.015,-0.015,-0.015,-0.0149,-0.0149,-0.0149,-0.0151,-0.0152,-0.0152,-0.0152,-0.0151,-0.0151,-0.0151,0,0,0,0,0,0,0,0,0,0,0,0,0,-0.0155,-0.0157,-0.015,-0.0151,-0.0151,-0.0149,-0.0149,-0.0149,-0.0151,-0.0152,-0.0152,-0.0152,-0.0151,-0.0151,-0.0151,-0.0148,0,0,-0.0151,-0.0151,0,0,0,0,0,0,0,0,-0.0155,-0.0155,-0.0151,-0.0151,-0.0151,-0.0151,-0.0151,-0.0149,-0.0151,-0.0151,-0.0152,-0.0152,-0.0151,-0.0151,-0.015,-0.0148,-0.0148,-0.0151,-0.0151,-0.0151,-0.0151,0,0,0,0,0,0,0,-0.0155,-0.0155,-0.015,-0.0151,-0.0151,-0.0153,-0.0153,-0.0151,-0.0151,-0.0151,-0.0152,-0.0151,-0.0151,-0.0151,-0.015,-0.0148,-0.0151,-0.0151,-0.0151,-0.015,-0.0146,-0.0146,0,0,0,0,0,0,-0.0155,-0.0155,-0.015,-0.015,-0.0154,-0.0153,-0.0152,-0.0151,-0.0151,-0.0151,-0.0151,-0.0152,-0.0151,-0.0151,-0.015,-0.0148,-0.0151,-0.015,-0.015,-0.0146,-0.0146,-0.0146,0,0,0,0,0,0,-0.0155,-0.0155,-0.015,-0.0153,-0.0152,-0.0152,-0.0151,-0.0151,-0.015,-0.0151,-0.0151,-0.0151,-0.0151,-0.0151,-0.0149,-0.0148,-0.015,-0.015,-0.0146,-0.0146,-0.0146,-0.0143,0,0,0,0,0,0,-0.0155,-0.0155,-0.0153,-0.0152,-0.0152,-0.0148,-0.015,-0.0151,-0.015,-0.015,-0.015,-0.015,-0.0151,-0.0149,-0.0149,-0.0148,-0.015,-0.0146,-0.0146,-0.0146,-0.0144,-0.0143,-0.0143,0,0,0,0,0,-0.0156,-0.0152,-0.0153,-0.0152,-0.0149,-0.0148,-0.0148,-0.0148,-0.015,-0.0148,-0.0149,-0.015,-0.0149,-0.0149,-0.0149,-0.0148,-0.0146,-0.0146,-0.0146,-0.0144,-0.0143,-0.0143,0,0,0,0,0,0,-0.0151,-0.0151,-0.0152,-0.0148,-0.0148,-0.0148,-0.0146,-0.0148,-0.0147,-0.0147,-0.0149,-0.0149,-0.0148,-0.0148,-0.0148,-0.0147,-0.0148,-0.0148,-0.0146,-0.0146,-0.0146,-0.0145,-0.015,0,0,0,0,0,-0.015,-0.0148,-0.0149,-0.0145,-0.0145,-0.0146,-0.0145,-0.0146,-0.0146,-0.0146,-0.0146,-0.0147,-0.0147,-0.0146,-0.0146,-0.0144,-0.0145,-0.0144,-0.0143,-0.0143,-0.0143,-0.0144,-0.0144,-0.0146,-0.0146,-0.0146,0,0,-0.0147,-0.0147,-0.0145,-0.0144,-0.0144,-0.0143,-0.0145,-0.0144,-0.0143,-0.0145,-0.0144,-0.0145,-0.0146,-0.0145,-0.0144,-0.0145,-0.0143,-0.0143,-0.0143,-0.0143,-0.0144,-0.0144,-0.0144,-0.0146,-0.0146,-0.0146,0,0,-0.014,-0.014,-0.0137,-0.0138,-0.0138,-0.0139,-0.0139,-0.0139,-0.014,-0.0139,-0.0141,-0.0142,-0.0141,-0.0142,-0.0142,-0.014,-0.0141,-0.014,-0.0138,-0.0139,-0.0139,-0.0139,-0.0139,-0.0139,-0.014,-0.014,-0.014,0,-0.0136,-0.0134,-0.0136,-0.0135,-0.0135,-0.0138,-0.0136,-0.0137,-0.0137,-0.0137,-0.0138,-0.0139,-0.014,-0.014,-0.0139,-0.0139,-0.014,-0.0139,-0.0139,-0.0139,-0.0139,-0.0139,-0.0139,-0.014,-0.014,-0.014,-0.014,0,-0.013,-0.0129,-0.0127,-0.0128,-0.0128,-0.0127,-0.0129,-0.0129,-0.0131,-0.0133,-0.0133,-0.0134,-0.0135,-0.0136,-0.0137,-0.0137,-0.0137,-0.0139,-0.014,-0.0139,-0.0139,-0.0139,-0.0139,-0.014,-0.014,-0.014,0,0,-0.0119,-0.0123,-0.0122,-0.0123,-0.0125,-0.0125,-0.0125,-0.0126,-0.0127,-0.0128,-0.0128,-0.0129,-0.0131,-0.0132,-0.0134,-0.0135,-0.0135,-0.0136,-0.0136,-0.0137,-0.0137,-0.0136,-0.0136,-0.0136,-0.0136,-0.0136,-0.0137,0,-0.0114,-0.0113,-0.0115,-0.0114,-0.0114,-0.0118,-0.0119,-0.0121,-0.0123,-0.0124,-0.0127,-0.0128,-0.013,-0.013,-0.0132,-0.0134,-0.0135,-0.0134,-0.0138,-0.0138,-0.0137,-0.0136,-0.0134,-0.0135,-0.0137,-0.0137,-0.0137,0,-0.0106,-0.0108,-0.0107,-0.0111,-0.0111,-0.0111,-0.0114,-0.0115,-0.0118,-0.012,-0.0122,-0.0124,-0.0126,-0.0128,-0.0131,-0.0131,-0.0133,-0.0135,-0.0135,-0.0136,-0.0137,-0.0136,-0.0135,-0.0135,-0.0137,-0.0137,-0.0137,0,-0.0099,-0.0101,-0.0101,-0.0102,-0.0107,-0.0107,-0.0109,-0.0113,-0.0114,-0.0117,-0.0118,-0.0121,-0.0123,-0.0126,-0.013,-0.0131,-0.0134,-0.0136,-0.0136,-0.0136,-0.0136,-0.0136,-0.0135,-0.0137,-0.0137,-0.0137,-0.0137,0,-0.0093,-0.0092,-0.0098,-0.0098,-0.0099,-0.0103,-0.0104,-0.0106,-0.011,-0.0112,-0.0116,-0.0117,-0.0123,-0.0126,-0.0129,-0.0133,-0.0133,-0.0135,-0.0136,-0.0135,-0.0135,-0.0136,-0.0136,-0.0137,-0.0137,-0.0137,-0.0137,0,-0.0084,-0.0088,-0.0089,-0.0094,-0.0096,-0.0096,-0.0101,-0.0102,-0.0106,-0.0108,-0.0109,-0.0114,-0.0118,-0.0123,-0.0128,-0.0131,-0.0134,-0.0135,-0.0133,-0.0134,-0.0134,-0.0135,-0.0134,-0.0135,-0.0136,-0.0136,-0.0136,0,-0.008,-0.008,-0.0086,-0.0087,-0.0089,-0.0091,-0.0093,-0.0099,-0.0101,-0.0106,-0.0107,-0.0112,-0.0115,-0.0122,-0.0127,-0.0132,-0.0133,-0.0133,-0.0134,-0.0133,-0.0134,-0.0134,-0.0135,-0.0132,-0.0132,-0.0132,-0.0132,0,-0.0072,-0.0074,-0.0077,-0.0081,-0.0083,-0.0087,-0.009,-0.0092,-0.0098,-0.01,-0.0105,-0.0108,-0.0114,-0.0119,-0.0125,-0.0128,-0.0132,-0.0132,-0.0133,-0.0132,-0.0131,-0.0132,-0.0133,-0.0132,-0.0132,-0.0132,-0.0132,-0.0132,-0.0066,-0.0067,-0.0071,-0.0075,-0.0078,-0.0082,-0.0084,-0.0089,-0.0092,-0.0098,-0.0101,-0.0106,-0.0112,-0.012,-0.0124,-0.0129,-0.013,-0.013,-0.0131,-0.0131,-0.0131,-0.013,-0.013,-0.013,-0.013,-0.013,-0.013,0,-0.0058,-0.0062,-0.0066,-0.0071,-0.0074,-0.0078,-0.0083,-0.0086,-0.009,-0.0095,-0.0099,-0.0106,-0.0111,-0.0118,-0.0124,-0.0127,-0.0129,-0.0128,-0.0128,-0.0129,-0.0129,-0.0128,-0.0127,-0.0127,-0.0127,-0.0127,-0.0127,-0.0127,-0.0055,-0.0057,-0.0061,-0.0066,-0.0071,-0.0075,-0.0078,-0.0082,-0.0087,-0.0094,-0.0099,-0.0103,-0.011,-0.0117,-0.0123,-0.0125,-0.0127,-0.0127,-0.0129,-0.0129,-0.0129,-0.0129,-0.0129,-0.0127,-0.0127,-0.0129,-0.0129,-0.0129]}]]